Location: Bennemühlen
(52.5740°N, 9.7135°E)
Time: 11:53:18
(UTC+00:00)

Tiros 1 despin weight - Visible Passes

Search period start: 16 February 2026 00:00
Search period end: 26 February 2026 00:00
Orbit: 557 x 594 km, 48.2° (Epoch: 15 February)

Date Brightness Start Highest point End Pass type
(mag) Time Alt. Az. Time Alt. Az. Time Alt. Az.
16 Feb ? 17:05:28 10° WSW 17:09:28 44° S 17:13:29 10° E visible
16 Feb ? 18:45:43 10° W 18:49:39 40° SSW 18:50:22 37° SSE visible
17 Feb ? 17:07:51 10° WSW 17:11:53 46° S 17:15:56 10° ESE visible
17 Feb ? 18:48:12 10° W 18:52:02 35° SSW 18:52:53 31° S visible
18 Feb ? 17:10:16 10° WSW 17:14:18 46° S 17:18:21 10° ESE visible
18 Feb ? 18:50:44 10° W 18:54:24 29° SSW 18:55:27 26° S visible
19 Feb ? 17:12:42 10° W 17:16:42 44° S 17:20:42 10° ESE visible
19 Feb ? 18:53:20 10° W 18:56:42 23° SSW 18:58:04 20° S visible
20 Feb ? 17:15:08 10° W 17:19:05 39° SSW 17:23:01 10° ESE visible
20 Feb ? 18:56:03 10° WSW 18:58:57 18° SSW 19:00:45 14° S visible
21 Feb ? 17:17:36 10° W 17:21:25 34° SSW 17:25:14 10° SE visible
21 Feb ? 18:59:03 10° WSW 19:01:10 14° SW 19:03:16 10° S visible
22 Feb ? 17:20:07 10° W 17:23:44 28° SSW 17:27:21 10° SE visible
23 Feb ? 17:22:41 10° W 17:26:00 23° SSW 17:29:20 10° SSE visible
24 Feb ? 17:25:24 10° WSW 17:28:14 18° SSW 17:31:04 10° S visible
25 Feb ? 17:28:24 10° WSW 17:30:24 13° SW 17:32:24 10° S visible
